Location: Cz?stochówka
(50.8142°N, 19.0915°E)
Time: 15:22:38
(UTC+00:00)

Cosmos 2366 rocket - Pass Details

Date: 20 April 2026
Orbit: 954 x 996 km, 82.9° (Epoch: 16 May)

Event Time Altitude Azimuth Distance (km) Brightness Sun altitude
Rises 19:55:53 0° 225° (SW) 3,632 7.0 -17.7°
Reaches altitude 10° 19:58:47 10° 238° (WSW) 2,686 6.4 -18.0°
Maximum altitude 20:03:56 28° 295° (WNW) 1,731 6.0 -18.6°
Drops below altitude 10° 20:09:08 10° 353° (N) 2,696 7.1 -19.1°
Sets 20:12:03 0° 5° (N) 3,647 7.7 -19.4°
